Location: San Pelegr�n
(42.1868°N, 0.0079°E)
Time: 07:44:34
(UTC+00:00)

USA 234 - Pass Details

Date: 24 January 2020
Orbit: 1100 x 1107 km, 123.0° (Epoch: 09 February)

Event Time Altitude Azimuth Distance (km) Brightness Sun altitude
Rises 17:17:30 0° 119° (ESE) 3,907 5.8 -3.2°
Reaches altitude 10° 17:19:59 10° 117° (ESE) 2,952 5.1 -3.6°
Maximum altitude 17:26:26 68° 36° (NE) 1,182 3.3 -4.7°
Drops below altitude 10° 17:32:55 10° 315° (NW) 2,966 5.9 -5.9°
Sets 17:35:25 0° 313° (NW) 3,927 6.5 -6.3°
